DateTimeUTC,F1_A11,F1_S11,BsB_S11,BsG_S11,BsR_S11,BbsB_S11,BbsG_S11,BbsR_S11,BaB_A11,BaG_A11,BaR_A11,Tu_S11,T_S11,Uu_S11,U_S11,P_S11,T1_A11
2021-09-04T05:00:00Z,00000200,21000000,,,,,,,0000.01,-000.24,0000.01,18.1,25.2,,00.0,0666.5,31.0
2021-09-04T05:01:00Z,00000200,21000000,,,,,,,-000.17,-000.12,-000.03,18.1,25.2,,00.0,0666.5,31.0
2021-09-04T05:02:00Z,00000200,21000000,,,,,,,-000.07,0000.16,0000.27,18.2,25.3,,00.0,0666.5,31.1
2021-09-04T05:03:00Z,00000200,61000000,,,,,,,-000.08,-000.17,-000.10,18.2,25.3,,00.0,0666.5,31.1
2021-09-04T05:04:00Z,00000200,41000000,-000.23,-000.10,0000.17,0000.24,0000.23,-000.02,0001.05,0000.72,0000.45,18.6,25.2,,00.0,0667.4,31.0
2021-09-04T05:05:00Z,00000200,01000000,0000.33,0000.22,0000.01,0000.51,0000.17,0000.34,0000.92,0001.20,0000.69,18.6,25.1,,00.0,0667.5,31.0
2021-09-04T05:06:00Z,00000200,01000000,0000.44,-000.27,0000.03,0000.50,0000.03,0000.24,0000.68,0000.34,0000.52,18.6,25.1,,00.0,0667.5,31.0
2021-09-04T05:07:00Z,00000200,01000000,0001.31,-000.11,0000.20,0000.05,0000.04,0000.29,0000.32,0000.55,0000.14,18.5,25.1,,00.0,0667.5,31.0
2021-09-04T05:08:00Z,00000200,01000000,0000.76,0000.13,-000.26,0000.27,0000.20,0000.02,0000.27,0000.23,0000.12,18.5,25.1,,00.0,0667.5,31.0
2021-09-04T05:09:00Z,00000200,01000000,0000.07,-000.19,0000.35,-000.30,-000.23,0000.30,0000.33,0000.28,0000.32,18.4,25.0,,00.0,0667.5,31.0
2021-09-04T05:10:00Z,00000200,01000000,0000.60,-000.07,0000.50,0000.29,0000.35,0000.52,0001.06,0000.63,0000.68,18.4,25.0,,00.0,0667.5,31.0
2021-09-04T05:11:00Z,00000200,01000000,0000.46,-000.10,0000.32,0000.76,0000.01,0000.07,0001.51,0001.47,0000.60,18.3,25.0,,00.0,0667.4,31.0
2021-09-04T05:12:00Z,00000200,01000000,0000.27,0000.00,-000.13,0000.12,-000.05,0000.04,0000.93,0000.84,0001.00,18.3,25.0,,00.0,0667.4,31.0
2021-09-04T05:13:00Z,00000200,01000000,0000.93,-000.11,0000.11,0000.06,0000.04,0000.13,0001.29,0000.97,0001.10,18.3,24.9,,00.0,0667.4,31.0
2021-09-04T05:14:00Z,00000200,01000000,0000.12,-000.24,0000.15,0000.29,0000.12,0000.22,0001.42,0001.33,0000.87,18.4,25.0,,00.0,0667.4,31.0
2021-09-04T05:15:00Z,00000200,01000000,-000.06,0000.23,-000.06,0000.05,-000.16,-000.08,0000.95,0001.14,0000.67,18.5,25.0,,00.0,0667.4,31.0
2021-09-04T05:16:00Z,00000200,01000000,0000.38,0000.03,0000.00,-000.29,-000.10,-000.12,0000.97,0000.86,0000.92,18.6,25.1,,00.0,0667.4,31.0
2021-09-04T05:17:00Z,00000200,01000000,0000.32,0000.03,-000.09,-000.19,-000.01,0000.20,0000.74,0000.51,0000.25,18.6,25.1,,00.0,0667.4,31.0
2021-09-04T05:18:00Z,00000200,01000000,-000.17,-000.06,-000.20,-000.24,-000.20,0000.01,0001.43,0001.36,0000.97,18.6,25.1,,00.0,0667.4,31.0
2021-09-04T05:19:00Z,00000200,01000000,0000.63,0000.14,0000.04,-000.14,0000.12,0000.17,0002.94,0002.76,0002.11,18.5,25.1,,00.0,0667.4,31.0
2021-09-04T05:20:00Z,00000200,01000000,0000.64,-000.41,-000.23,-000.02,0000.24,0000.02,0005.17,0004.49,0003.30,18.5,25.0,,00.0,0667.4,31.0
2021-09-04T05:21:00Z,00000200,01000000,0000.52,0000.00,-000.16,-000.04,0000.46,-000.27,0004.63,0004.44,0003.14,18.4,25.0,,00.0,0667.4,31.0
2021-09-04T05:22:00Z,00000200,01000000,0000.65,-000.39,-000.19,0000.52,-000.09,-000.06,0001.34,0000.68,0001.04,18.4,25.0,,00.0,0667.4,31.0
2021-09-04T05:23:00Z,00000200,01000000,0000.08,-000.01,0000.31,-000.11,0000.05,-000.12,0000.65,0000.53,0000.50,18.3,25.0,,00.0,0667.4,31.0
2021-09-04T05:24:00Z,00000200,01000000,-000.98,-000.19,0000.06,0000.58,-000.08,0000.44,-000.06,0000.29,-000.45,18.3,24.9,,00.0,0667.4,31.0
2021-09-04T05:25:00Z,00000200,01000000,0000.07,-000.46,0000.29,-000.00,0000.13,-000.05,0000.19,0000.06,0000.22,18.3,24.9,,00.0,0667.4,31.0
2021-09-04T05:26:00Z,00000200,01000000,-000.48,-000.29,-000.01,-000.05,0000.14,-000.13,0000.11,0000.12,0000.21,18.2,24.9,,00.0,0667.4,31.0
2021-09-04T05:27:00Z,00000200,01000000,0000.79,-000.22,0000.20,0000.09,0000.21,-000.07,0000.23,0000.17,0000.44,18.2,24.9,,00.0,0667.4,31.0
2021-09-04T05:28:00Z,00000200,01000000,-000.36,-000.31,-000.29,0000.35,0000.15,0000.20,0000.24,0000.22,0000.12,18.2,24.9,,00.0,0667.4,31.0
2021-09-04T05:29:00Z,00000200,01000000,0000.62,0000.19,0000.16,-000.37,0000.07,-000.01,-000.07,0000.04,-000.10,18.3,24.9,,00.0,0667.4,31.0
2021-09-04T05:30:00Z,00000200,01000000,-000.29,-000.22,0000.10,-000.61,0000.02,0000.21,0000.18,0000.18,0000.12,18.4,24.9,,00.0,0667.4,31.0
2021-09-04T05:31:00Z,00000200,01000000,0000.22,0000.05,0000.02,0000.87,-000.09,0000.02,-000.01,-000.04,-000.16,18.5,25.0,,00.0,0667.4,31.0
2021-09-04T05:32:00Z,00000200,01000000,-000.22,-000.09,0000.12,0000.55,-000.10,0000.11,-000.06,0000.12,0000.04,18.6,25.0,,00.0,0667.4,31.0
2021-09-04T05:33:00Z,00000200,01000000,0000.31,-000.27,-000.06,0000.27,-000.11,0000.10,-000.14,-000.04,0000.05,18.6,25.0,,00.0,0667.4,31.0
2021-09-04T05:34:00Z,00000200,01000000,0000.62,0000.09,0000.25,0000.29,0000.20,0000.21,0000.00,-000.19,-000.29,18.6,25.0,,00.0,0667.4,31.0
2021-09-04T05:35:00Z,00000200,01000000,0000.44,-000.28,-000.14,-000.28,0000.24,-000.03,-000.03,-000.02,-000.17,18.5,25.0,,00.0,0667.4,31.0
2021-09-04T05:36:00Z,00000200,01000000,0000.62,-000.25,0000.03,-000.20,0000.42,0000.37,-000.01,-000.13,0000.24,18.5,25.0,,00.0,0667.4,31.0
2021-09-04T05:37:00Z,00000200,01000000,0000.03,-000.12,-000.09,-000.23,0000.12,-000.20,-000.18,-000.01,-000.17,18.4,25.0,,00.0,0667.4,31.0
2021-09-04T05:38:00Z,00000200,01000000,-000.58,0000.00,0000.29,0000.14,0000.14,0000.39,0000.10,-000.32,0000.24,18.4,24.9,,00.0,0667.4,31.0
2021-09-04T05:39:00Z,00000200,01000000,0000.84,-000.10,0000.12,0000.37,0000.09,-000.04,-000.06,0000.22,-000.25,18.3,24.9,,00.0,0667.4,31.0
2021-09-04T05:40:00Z,00000200,01000000,0000.39,-000.26,-000.01,0000.12,-000.31,0000.10,-000.27,-000.04,0000.10,18.3,24.9,,00.0,0667.4,31.0
2021-09-04T05:41:00Z,00000200,01000000,0000.47,-000.08,0000.27,0000.15,0000.02,0000.07,0000.25,-000.16,-000.02,18.2,24.9,,00.0,0667.4,31.0
2021-09-04T05:42:00Z,00000200,01000000,-000.55,-000.13,-000.04,0000.74,0000.16,0000.17,0000.14,0000.44,0000.06,18.2,24.8,,00.0,0667.4,31.0
2021-09-04T05:43:00Z,00000200,01000000,0000.12,-000.48,-000.28,-000.42,0000.19,-000.03,-000.00,-000.19,0000.16,18.2,24.8,,00.0,0667.4,31.0
2021-09-04T05:44:00Z,00000200,01000000,-000.11,-000.20,-000.26,0000.18,-000.12,0000.07,0000.33,0000.30,0000.12,18.3,24.9,,00.0,0667.4,31.0
2021-09-04T05:45:00Z,00000200,01000000,-000.00,-000.26,0000.05,-000.07,0000.14,0000.00,0000.12,0000.13,-000.17,18.5,24.9,,00.0,0667.4,31.0
2021-09-04T05:46:00Z,00000200,01000000,0000.56,-000.46,-000.04,-000.37,0000.10,-000.03,-000.27,-000.13,0000.07,18.5,25.0,,00.0,0667.5,31.0
2021-09-04T05:47:00Z,00000200,01000000,-000.29,-000.16,0000.24,0000.26,-000.12,0000.31,-000.08,-000.15,0000.00,18.6,25.0,,00.0,0667.4,31.0
2021-09-04T05:48:00Z,00000200,01000000,0000.76,-000.26,0000.00,-000.02,0000.03,0000.01,0000.04,0000.62,0000.08,18.6,25.0,,00.0,0667.4,31.0
2021-09-04T05:49:00Z,00000200,01000000,0000.38,-000.20,0000.08,-000.02,0000.08,0000.40,0000.14,-000.24,-000.20,18.6,25.0,,00.0,0667.4,31.0
2021-09-04T05:50:00Z,00000200,01000000,-000.28,-000.13,0000.11,0000.18,0000.13,0000.21,-000.38,-000.43,0000.18,18.6,25.0,,00.0,0667.4,31.0
2021-09-04T05:51:00Z,00000200,01000000,-000.50,-000.27,-000.10,-000.30,-000.02,0000.20,0000.27,0000.12,-000.21,18.5,25.0,,00.0,0667.4,31.0
2021-09-04T05:52:00Z,00000200,01000000,0000.54,0000.05,-000.24,0000.66,-000.10,0000.03,-000.09,0000.04,0000.30,18.5,24.9,,00.0,0667.4,31.0
2021-09-04T05:53:00Z,00000200,01000000,0000.12,0000.06,-000.07,0000.65,-000.06,0000.03,-000.01,-000.10,-000.38,18.4,24.9,,00.0,0667.4,31.0
2021-09-04T05:54:00Z,00000200,01000000,0000.44,-000.01,0000.16,-000.59,0000.13,0000.36,0000.15,-000.04,-000.17,18.4,24.9,,00.0,0667.4,31.0
2021-09-04T05:55:00Z,00000200,01000000,-000.73,-000.42,0000.05,0000.72,-000.21,0000.08,-000.18,0000.03,0000.29,18.3,24.9,,00.0,0667.4,31.0
2021-09-04T05:56:00Z,00000200,01000000,0000.44,-000.38,0000.12,0000.22,0000.25,0000.26,0000.08,0000.10,-000.04,18.3,24.9,,00.0,0667.4,31.0
2021-09-04T05:57:00Z,00000200,41000000,,,,,,,0000.98,0000.71,0000.40,18.3,24.9,,00.0,0667.5,31.0
2021-09-04T05:58:00Z,00000200,61000000,,,,,,,-000.55,-000.62,0000.19,17.9,25.0,,00.0,0666.4,31.0
2021-09-04T05:59:00Z,00000200,21000000,,,,,,,-000.27,0000.07,-000.37,18.0,25.1,,00.0,0666.5,31.0
